16-04-2022, 00:00:00,    158,    0.0,   10.2,   0.00,   0.00, 1023.8,   73.3, -999.0
16-04-2022, 00:00:10,    158,    0.0,   10.2,   0.00,   0.00, 1023.8,   73.2, -999.0
16-04-2022, 00:00:20,    157,    0.0,   10.2,   0.00,   0.00, 1023.8,   73.2, -999.0
16-04-2022, 00:00:30,    157,    0.0,   10.2,   0.00,   0.00, 1023.8,   73.2, -999.0
16-04-2022, 00:00:40,    157,    0.0,   10.2,   0.00,   0.00, 1023.8,   73.3, -999.0
16-04-2022, 00:00:50,    157,    0.0,   10.1,   0.00,   0.00, 1023.8,   73.3, -999.0
16-04-2022, 00:01:00,    157,    0.0,   10.2,   0.00,   0.00, 1023.8,   73.3, -999.0
16-04-2022, 00:01:10,    157,    0.0,   10.2,   0.00,   0.00, 1023.8,   73.3, -999.0
16-04-2022, 00:01:20,    157,    0.0,   10.2,   0.00,   0.00, 1023.8,   73.3, -999.0
16-04-2022, 00:01:29,    157,    0.0,   10.2,   0.00,   0.00, 1023.8,   73.3, -999.0
16-04-2022, 00:01:40,    157,    0.0,   10.2,   0.00,   0.00, 1023.7,   73.3, -999.0
16-04-2022, 00:01:50,    157,    0.0,   10.2,   0.00,   0.00, 1023.8,   73.4, -999.0
16-04-2022, 00:01:59,    157,    0.0,   10.1,   0.00,   0.00, 1023.8,   73.4, -999.0
16-04-2022, 00:02:09,    157,    0.0,   10.1,   0.00,   0.00, 1023.8,   73.3, -999.0
16-04-2022, 00:02:19,    157,    0.0,   10.1,   0.00,   0.00, 1023.8,   73.4, -999.0
16-04-2022, 00:02:29,    157,    0.0,   10.1,   0.00,   0.00, 1023.8,   73.5, -999.0
16-04-2022, 00:02:39,    157,    0.0,   10.1,   0.00,   0.00, 1023.8,   73.5, -999.0
16-04-2022, 00:02:49,    157,    0.0,   10.0,   0.00,   0.00, 1023.8,   73.5, -999.0
16-04-2022, 00:02:59,    157,    0.0,   10.2,   0.00,   0.00, 1023.8,   73.5, -999.0
16-04-2022, 00:03:09,    157,    0.0,   10.1,   0.00,   0.00, 1023.8,   73.6, -999.0
16-04-2022, 00:03:19,    157,    0.0,   10.1,   0.00,   0.00, 1023.8,   73.5, -999.0
16-04-2022, 00:03:29,    157,    0.0,   10.1,   0.00,   0.00, 1023.8,   73.5, -999.0
16-04-2022, 00:03:39,    157,    0.0,   10.1,   0.00,   0.00, 1023.8,   73.5, -999.0
16-04-2022, 00:03:49,    157,    0.0,   10.1,   0.00,   0.00, 1023.8,   73.4, -999.0
16-04-2022, 00:03:59,    157,    0.0,   10.0,   0.00,   0.00, 1023.8,   73.5, -999.0
16-04-2022, 00:04:09,    156,    0.0,   10.1,   0.00,   0.00, 1023.8,   73.6, -999.0
16-04-2022, 00:04:19,    156,    0.0,   10.1,   0.00,   0.00, 1023.8,   73.9, -999.0
16-04-2022, 00:04:29,    156,    0.0,   10.1,   0.00,   0.00, 1023.8,   74.0, -999.0
16-04-2022, 00:04:38,    156,    0.0,   10.2,   0.00,   0.00, 1023.8,   74.0, -999.0
16-04-2022, 00:04:49,    163,    0.0,   10.2,   0.00,   0.00, 1023.8,   73.8, -999.0
16-04-2022, 00:04:59,    118,    0.0,   10.2,   0.00,   0.00, 1023.9,   73.8, -999.0
16-04-2022, 00:05:08,    118,    0.0,   10.1,   0.00,   0.00, 1023.8,   73.7, -999.0
16-04-2022, 00:05:19,    118,    0.0,   10.1,   0.00,   0.00, 1023.8,   73.6, -999.0
16-04-2022, 00:05:28,    119,    0.0,   10.1,   0.00,   0.00, 1023.9,   73.6, -999.0
16-04-2022, 00:05:38,    118,    0.0,   10.1,   0.00,   0.00, 1023.8,   73.7, -999.0
16-04-2022, 00:05:48,    118,    0.0,   10.2,   0.00,   0.00, 1023.8,   73.6, -999.0
16-04-2022, 00:05:58,    118,    0.0,   10.1,   0.00,   0.00, 1023.8,   73.8, -999.0
16-04-2022, 00:06:08,    118,    0.0,   10.1,   0.00,   0.00, 1023.8,   73.7, -999.0
16-04-2022, 00:06:18,    118,    0.0,   10.2,   0.00,   0.00, 1023.8,   73.7, -999.0
16-04-2022, 00:06:28,    167,    0.0,   10.1,   0.00,   0.00, 1023.9,   73.8, -999.0
16-04-2022, 00:06:38,    166,    0.0,   10.1,   0.00,   0.00, 1023.9,   73.7, -999.0
16-04-2022, 00:06:50,    166,    0.0,   10.1,   0.00,   0.00, 1023.9,   73.6, -999.0
16-04-2022, 00:06:58,    166,    0.0,   10.0,   0.00,   0.00, 1023.9,   73.8, -999.0
16-04-2022, 00:07:08,    166,    0.0,   10.0,   0.00,   0.00, 1023.9,   73.8, -999.0
16-04-2022, 00:07:18,    167,    0.0,   10.0,   0.00,   0.00, 1023.9,   73.7, -999.0
16-04-2022, 00:07:28,    166,    0.0,   10.0,   0.00,   0.00, 1023.8,   73.8, -999.0
16-04-2022, 00:07:38,    167,    0.0,   10.1,   0.00,   0.00, 1023.9,   73.7, -999.0
16-04-2022, 00:07:47,    167,    0.0,   10.1,   0.00,   0.00, 1023.9,   73.8, -999.0
16-04-2022, 00:07:58,    166,    0.0,   10.1,   0.00,   0.00, 1023.9,   73.9, -999.0
16-04-2022, 00:08:08,    166,    0.0,   10.0,   0.00,   0.00, 1023.9,   73.9, -999.0
16-04-2022, 00:08:17,    167,    0.0,   10.2,   0.00,   0.00, 1023.9,   74.0, -999.0
16-04-2022, 00:08:28,    166,    0.0,   10.2,   0.00,   0.00, 1023.9,   74.1, -999.0
16-04-2022, 00:08:37,    167,    0.0,   10.1,   0.00,   0.00, 1023.9,   74.0, -999.0
16-04-2022, 00:08:47,    167,    0.0,   10.1,   0.00,   0.00, 1023.9,   74.0, -999.0
16-04-2022, 00:08:57,    167,    0.0,   10.2,   0.00,   0.00, 1023.9,   74.0, -999.0
16-04-2022, 00:09:07,    167,    0.0,   10.1,   0.00,   0.00, 1023.9,   73.9, -999.0
16-04-2022, 00:09:17,    167,    0.0,   10.1,   0.00,   0.00, 1023.9,   73.9, -999.0
16-04-2022, 00:09:27,    167,    0.0,   10.1,   0.00,   0.00, 1023.9,   73.7, -999.0
16-04-2022, 00:09:37,    167,    0.0,   10.1,   0.00,   0.00, 1023.9,   73.8, -999.0
16-04-2022, 00:09:47,    167,    0.0,   10.1,   0.00,   0.00, 1023.9,   73.9, -999.0
16-04-2022, 00:09:57,    167,    0.0,   10.1,   0.00,   0.00, 1023.9,   73.8, -999.0
16-04-2022, 00:10:07,    167,    0.0,   10.1,   0.00,   0.00, 1023.9,   73.8, -999.0
16-04-2022, 00:10:17,    167,    0.0,   10.0,   0.00,   0.00, 1023.9,   73.7, -999.0
16-04-2022, 00:10:27,    167,    0.0,   10.1,   0.00,   0.00, 1023.9,   73.9, -999.0
16-04-2022, 00:10:37,    167,    0.0,   10.0,   0.00,   0.00, 1023.9,   73.9, -999.0
16-04-2022, 00:10:47,    167,    0.0,   10.1,   0.00,   0.00, 1023.9,   73.7, -999.0
16-04-2022, 00:10:57,    167,    0.0,   10.1,   0.00,   0.00, 1023.9,   74.0, -999.0
16-04-2022, 00:11:07,    167,    0.0,   10.0,   0.00,   0.00, 1023.9,   74.0, -999.0
16-04-2022, 00:11:17,    167,    0.0,   10.0,   0.00,   0.00, 1023.9,   73.9, -999.0
16-04-2022, 00:11:26,    166,    0.0,    9.9,   0.00,   0.00, 1023.9,   74.0, -999.0
16-04-2022, 00:11:37,    167,    0.0,   10.0,   0.00,   0.00, 1023.9,   74.0, -999.0
16-04-2022, 00:11:46,    167,    0.0,   10.0,   0.00,   0.00, 1023.9,   74.0, -999.0
16-04-2022, 00:11:56,    167,    0.0,   10.0,   0.00,   0.00, 1023.9,   73.9, -999.0
16-04-2022, 00:12:06,    167,    0.0,   10.0,   0.00,   0.00, 1023.9,   74.0, -999.0
16-04-2022, 00:12:17,    167,    0.0,    9.9,   0.00,   0.00, 1023.9,   74.0, -999.0
16-04-2022, 00:12:26,    167,    0.0,    9.9,   0.00,   0.00, 1023.9,   74.0, -999.0
16-04-2022, 00:12:36,    167,    0.0,    9.9,   0.00,   0.00, 1023.9,   74.0, -999.0
16-04-2022, 00:12:46,    167,    0.0,    9.9,   0.00,   0.00, 1023.9,   74.1, -999.0
16-04-2022, 00:12:56,    167,    0.0,    9.8,   0.00,   0.00, 1023.9,   74.2, -999.0
16-04-2022, 00:13:06,    167,    0.0,    9.9,   0.00,   0.00, 1023.9,   74.4, -999.0
16-04-2022, 00:13:16,    167,    0.0,    9.9,   0.00,   0.00, 1023.9,   74.4, -999.0
16-04-2022, 00:13:26,    167,    0.0,    9.9,   0.00,   0.00, 1023.9,   74.3, -999.0
16-04-2022, 00:13:36,    167,    0.0,   10.0,   0.00,   0.00, 1023.9,   74.3, -999.0
16-04-2022, 00:13:46,    167,    0.0,    9.9,   0.00,   0.00, 1023.9,   74.3, -999.0
16-04-2022, 00:13:56,    167,    0.0,    9.9,   0.00,   0.00, 1023.9,   74.2, -999.0
16-04-2022, 00:14:06,    167,    0.0,   10.0,   0.00,   0.00, 1023.9,   74.4, -999.0
16-04-2022, 00:14:16,    167,    0.0,    9.8,   0.00,   0.00, 1023.9,   74.5, -999.0
16-04-2022, 00:14:25,    167,    0.0,    9.9,   0.00,   0.00, 1023.9,   74.4, -999.0
16-04-2022, 00:14:35,    167,    0.0,    9.9,   0.00,   0.00, 1023.9,   74.5, -999.0
16-04-2022, 00:14:46,    167,    0.0,    9.8,   0.00,   0.00, 1023.9,   74.4, -999.0
16-04-2022, 00:14:55,    167,    0.0,    9.9,   0.00,   0.00, 1023.9,   74.4, -999.0
16-04-2022, 00:15:05,    167,    0.0,    9.9,   0.00,   0.00, 1023.9,   74.5, -999.0
16-04-2022, 00:15:15,    167,    0.0,    9.8,   0.00,   0.00, 1023.9,   74.4, -999.0
16-04-2022, 00:15:25,    167,    0.0,    9.9,   0.00,   0.00, 1023.9,   74.5, -999.0
16-04-2022, 00:15:35,    167,    0.0,    9.9,   0.00,   0.00, 1023.9,   74.5, -999.0
16-04-2022, 00:15:45,    167,    0.0,    9.9,   0.00,   0.00, 1023.9,   74.5, -999.0
16-04-2022, 00:15:55,    167,    0.0,    9.9,   0.00,   0.00, 1023.9,   74.6, -999.0
16-04-2022, 00:16:05,    167,    0.0,    9.9,   0.00,   0.00, 1023.9,   74.7, -999.0
16-04-2022, 00:16:15,    167,    0.0,    9.9,   0.00,   0.00, 1023.9,   74.6, -999.0
16-04-2022, 00:16:25,    167,    0.0,    9.9,   0.00,   0.00, 1023.9,   74.6, -999.0
16-04-2022, 00:16:35,    167,    0.0,    9.9,   0.00,   0.00, 1023.9,   74.6, -999.0
16-04-2022, 00:16:45,    167,    0.0,    9.9,   0.00,   0.00, 1023.9,   74.5, -999.0
16-04-2022, 00:16:55,    167,    0.0,    9.9,   0.00,   0.00, 1023.9,   74.6, -999.0
16-04-2022, 00:17:05,    167,    0.0,    9.9,   0.00,   0.00, 1023.9,   74.5, -999.0
16-04-2022, 00:17:15,    167,    0.0,    9.9,   0.00,   0.00, 1023.9,   74.6, -999.0
16-04-2022, 00:17:25,    167,    0.0,    9.9,   0.00,   0.00, 1023.9,   74.7, -999.0
16-04-2022, 00:17:34,    167,    0.0,    9.8,   0.00,   0.00, 1023.9,   74.7, -999.0
16-04-2022, 00:17:44,    167,    0.0,    9.8,   0.00,   0.00, 1023.9,   74.5, -999.0
16-04-2022, 00:17:55,    167,    0.0,    9.9,   0.00,   0.00, 1023.9,   74.6, -999.0
16-04-2022, 00:18:04,    167,    0.0,    9.9,   0.00,   0.00, 1023.9,   74.7, -999.0
16-04-2022, 00:18:14,    167,    0.0,    9.9,   0.00,   0.00, 1023.9,   74.7, -999.0
16-04-2022, 00:18:24,    167,    0.0,    9.9,   0.00,   0.00, 1023.9,   74.7, -999.0
16-04-2022, 00:18:34,    167,    0.0,    9.9,   0.00,   0.00, 1024.0,   74.6, -999.0
16-04-2022, 00:18:44,    167,    0.0,   10.0,   0.00,   0.00, 1023.9,   74.7, -999.0
16-04-2022, 00:18:54,    167,    0.0,    9.9,   0.00,   0.00, 1023.9,   74.7, -999.0
16-04-2022, 00:19:04,    166,    0.0,    9.9,   0.00,   0.00, 1023.9,   74.8, -999.0
16-04-2022, 00:19:14,    167,    0.0,    9.9,   0.00,   0.00, 1023.9,   74.7, -999.0
16-04-2022, 00:19:24,    167,    0.0,    9.9,   0.00,   0.00, 1024.0,   74.8, -999.0
16-04-2022, 00:19:34,    168,    0.0,    9.9,   0.00,   0.00, 1024.0,   74.8, -999.0
16-04-2022, 00:19:44,    167,    0.0,    9.9,   0.00,   0.00, 1024.0,   74.8, -999.0
16-04-2022, 00:19:54,    167,    0.0,    9.9,   0.00,   0.00, 1023.9,   74.8, -999.0
16-04-2022, 00:20:04,    167,    0.0,    9.9,   0.00,   0.00, 1024.0,   74.6, -999.0
16-04-2022, 00:20:14,    166,    0.0,    9.8,   0.00,   0.00, 1024.0,   74.6, -999.0
16-04-2022, 00:20:24,    167,    0.0,    9.8,   0.00,   0.00, 1023.9,   74.5, -999.0
16-04-2022, 00:20:34,    167,    0.0,    9.9,   0.00,   0.00, 1024.0,   74.7, -999.0
16-04-2022, 00:20:43,    167,    0.0,    9.8,   0.00,   0.00, 1024.0,   74.9, -999.0
16-04-2022, 00:20:53,    167,    0.0,    9.9,   0.00,   0.00, 1024.0,   74.8, -999.0
16-04-2022, 00:21:04,    167,    0.0,    9.8,   0.00,   0.00, 1024.0,   74.8, -999.0
16-04-2022, 00:21:13,    167,    0.0,    9.8,   0.00,   0.00, 1024.0,   74.7, -999.0
16-04-2022, 00:21:23,    167,    0.0,    9.8,   0.00,   0.00, 1024.0,   74.8, -999.0
16-04-2022, 00:21:33,    167,    0.0,    9.8,   0.00,   0.00, 1024.0,   74.8, -999.0
16-04-2022, 00:21:43,    167,    0.0,    9.8,   0.00,   0.00, 1024.0,   74.9, -999.0
16-04-2022, 00:21:53,    167,    0.0,    9.8,   0.00,   0.00, 1023.9,   75.0, -999.0
16-04-2022, 00:22:03,    167,    0.0,    9.8,   0.00,   0.00, 1024.0,   75.0, -999.0
16-04-2022, 00:22:13,    167,    0.0,    9.7,   0.00,   0.00, 1024.0,   75.0, -999.0
16-04-2022, 00:22:23,    167,    0.0,    9.8,   0.00,   0.00, 1024.0,   75.0, -999.0
16-04-2022, 00:22:33,    167,    0.0,    9.7,   0.00,   0.00, 1024.0,   75.1, -999.0
16-04-2022, 00:22:43,    167,    0.0,    9.6,   0.00,   0.00, 1024.0,   75.0, -999.0
16-04-2022, 00:22:53,    167,    0.0,    9.7,   0.00,   0.00, 1024.0,   75.1, -999.0
16-04-2022, 00:23:03,    167,    0.0,    9.9,   0.00,   0.00, 1024.0,   75.3, -999.0
16-04-2022, 00:23:13,    167,    0.0,    9.9,   0.00,   0.00, 1024.0,   75.5, -999.0
16-04-2022, 00:23:23,    167,    0.0,    9.9,   0.00,   0.00, 1024.0,   75.5, -999.0
16-04-2022, 00:23:33,    167,    0.0,    9.9,   0.00,   0.00, 1024.1,   75.7, -999.0
16-04-2022, 00:23:43,    167,    0.0,   10.0,   0.00,   0.00, 1024.0,   75.4, -999.0
16-04-2022, 00:23:52,    167,    0.0,    9.9,   0.00,   0.00, 1024.0,   75.3, -999.0
16-04-2022, 00:24:02,    167,    0.0,    9.9,   0.00,   0.00, 1024.0,   75.2, -999.0
16-04-2022, 00:24:13,    166,    0.0,    9.9,   0.00,   0.00, 1024.0,   75.1, -999.0
16-04-2022, 00:24:22,    166,    0.0,    9.9,   0.00,   0.00, 1024.0,   75.2, -999.0
16-04-2022, 00:24:32,    166,    0.0,    9.9,   0.00,   0.00, 1024.0,   75.0, -999.0
16-04-2022, 00:24:43,    166,    0.0,    9.8,   0.00,   0.00, 1024.0,   75.0, -999.0
16-04-2022, 00:24:52,    166,    0.0,    9.9,   0.00,   0.00, 1024.0,   75.0, -999.0
16-04-2022, 00:25:02,    166,    0.0,    9.8,   0.00,   0.00, 1024.0,   75.0, -999.0
16-04-2022, 00:25:12,    166,    0.0,    9.9,   0.00,   0.00, 1024.0,   75.0, -999.0
16-04-2022, 00:25:22,    166,    0.0,    9.8,   0.00,   0.00, 1024.1,   75.0, -999.0
16-04-2022, 00:25:32,    166,    0.0,    9.8,   0.00,   0.00, 1024.0,   74.9, -999.0
16-04-2022, 00:25:42,    166,    0.0,    9.8,   0.00,   0.00, 1024.1,   75.0, -999.0
16-04-2022, 00:25:52,    166,    0.0,    9.8,   0.00,   0.00, 1024.0,   75.0, -999.0
16-04-2022, 00:26:02,    166,    0.0,    9.8,   0.00,   0.00, 1024.0,   75.0, -999.0
16-04-2022, 00:26:12,    166,    0.0,    9.7,   0.00,   0.00, 1024.1,   75.0, -999.0
16-04-2022, 00:26:22,    166,    0.0,    9.7,   0.00,   0.00, 1024.0,   75.1, -999.0
16-04-2022, 00:26:32,    166,    0.0,    9.8,   0.00,   0.00, 1024.0,   75.0, -999.0
16-04-2022, 00:26:42,    166,    0.0,    9.8,   0.00,   0.00, 1024.0,   75.0, -999.0
16-04-2022, 00:26:52,    166,    0.0,    9.7,   0.00,   0.00, 1024.0,   75.0, -999.0
16-04-2022, 00:27:01,    166,    0.0,    9.7,   0.00,   0.00, 1024.1,   75.0, -999.0
16-04-2022, 00:27:12,    166,    0.0,    9.8,   0.00,   0.00, 1024.0,   75.1, -999.0
16-04-2022, 00:27:22,    167,    0.0,    9.7,   0.00,   0.00, 1024.1,   75.2, -999.0
16-04-2022, 00:27:31,    166,    0.0,    9.7,   0.00,   0.00, 1024.0,   75.3, -999.0
16-04-2022, 00:27:41,    166,    0.0,    9.7,   0.00,   0.00, 1024.0,   75.3, -999.0
16-04-2022, 00:27:52,    166,    0.0,    9.7,   0.00,   0.00, 1024.1,   75.3, -999.0
16-04-2022, 00:28:01,    166,    0.0,    9.7,   0.00,   0.00, 1024.0,   75.4, -999.0
16-04-2022, 00:28:11,    166,    0.0,    9.7,   0.00,   0.00, 1024.1,   75.4, -999.0
16-04-2022, 00:28:21,    166,    0.0,    9.7,   0.00,   0.00, 1024.1,   75.4, -999.0
16-04-2022, 00:28:31,    166,    0.0,    9.7,   0.00,   0.00, 1024.0,   75.4, -999.0
16-04-2022, 00:28:41,    166,    0.0,    9.6,   0.00,   0.00, 1024.0,   75.5, -999.0
16-04-2022, 00:28:51,    166,    0.0,    9.6,   0.00,   0.00, 1024.0,   75.5, -999.0
16-04-2022, 00:29:01,    166,    0.0,    9.7,   0.00,   0.00, 1024.1,   75.5, -999.0
16-04-2022, 00:29:11,    167,    0.0,    9.6,   0.00,   0.00, 1024.1,   75.5, -999.0
16-04-2022, 00:29:21,    166,    0.0,    9.6,   0.00,   0.00, 1024.1,   75.5, -999.0
16-04-2022, 00:29:31,    166,    0.0,    9.6,   0.00,   0.00, 1024.1,   75.6, -999.0
16-04-2022, 00:29:41,    166,    0.0,    9.6,   0.00,   0.00, 1024.0,   75.5, -999.0
16-04-2022, 00:29:51,    166,    0.0,    9.7,   0.00,   0.00, 1024.1,   75.5, -999.0
16-04-2022, 00:30:01,    166,    0.0,    9.6,   0.00,   0.00, 1024.1,   75.5, -999.0
16-04-2022, 00:30:10,    166,    0.0,    9.6,   0.00,   0.00, 1024.1,   75.7, -999.0
16-04-2022, 00:30:21,    166,    0.0,    9.6,   0.00,   0.00, 1024.0,   75.6, -999.0
16-04-2022, 00:30:31,    166,    0.0,    9.6,   0.00,   0.00, 1024.1,   75.6, -999.0
16-04-2022, 00:30:40,    166,    0.0,    9.6,   0.00,   0.00, 1024.0,   75.7, -999.0
16-04-2022, 00:30:50,    167,    0.0,    9.6,   0.00,   0.00, 1024.1,   75.6, -999.0
16-04-2022, 00:31:00,    166,    0.0,    9.5,   0.00,   0.00, 1024.1,   75.6, -999.0
16-04-2022, 00:31:10,    166,    0.0,    9.5,   0.00,   0.00, 1024.1,   75.7, -999.0
16-04-2022, 00:31:20,    166,    0.0,    9.6,   0.00,   0.00, 1024.1,   75.6, -999.0
16-04-2022, 00:31:30,    167,    0.0,    9.6,   0.00,   0.00, 1024.1,   75.7, -999.0
16-04-2022, 00:31:40,    166,    0.0,    9.5,   0.00,   0.00, 1024.0,   75.8, -999.0
16-04-2022, 00:31:50,    166,    0.0,    9.6,   0.00,   0.00, 1024.1,   75.8, -999.0
16-04-2022, 00:32:00,    166,    0.0,    9.6,   0.00,   0.00, 1024.1,   75.9, -999.0
16-04-2022, 00:32:10,    166,    0.0,    9.6,   0.00,   0.00, 1024.1,   75.8, -999.0
16-04-2022, 00:32:20,    167,    0.0,    9.6,   0.00,   0.00, 1024.1,   75.9, -999.0
16-04-2022, 00:32:30,    167,    0.0,    9.5,   0.00,   0.00, 1024.1,   75.8, -999.0
16-04-2022, 00:32:40,    166,    0.0,    9.5,   0.00,   0.00, 1024.1,   75.9, -999.0
16-04-2022, 00:32:50,    167,    0.0,    9.5,   0.00,   0.00, 1024.1,   75.9, -999.0
16-04-2022, 00:33:00,    167,    0.0,    9.5,   0.00,   0.00, 1024.1,   76.0, -999.0
16-04-2022, 00:33:10,    166,    0.0,    9.5,   0.00,   0.00, 1024.1,   76.0, -999.0
16-04-2022, 00:33:20,    166,    0.0,    9.6,   0.00,   0.00, 1024.1,   76.0, -999.0
16-04-2022, 00:33:30,    167,    0.0,    9.6,   0.00,   0.00, 1024.1,   76.0, -999.0
16-04-2022, 00:33:39,    167,    0.0,    9.6,   0.00,   0.00, 1024.1,   76.0, -999.0
16-04-2022, 00:33:49,    166,    0.0,    9.5,   0.00,   0.00, 1024.1,   76.0, -999.0
16-04-2022, 00:34:00,    167,    0.0,    9.6,   0.00,   0.00, 1024.1,   75.9, -999.0
16-04-2022, 00:34:09,    167,    0.0,    9.5,   0.00,   0.00, 1024.1,   76.0, -999.0
16-04-2022, 00:34:19,    166,    0.0,    9.5,   0.00,   0.00, 1024.1,   76.0, -999.0
16-04-2022, 00:34:29,    167,    0.0,    9.4,   0.00,   0.00, 1024.1,   76.2, -999.0
16-04-2022, 00:34:39,    166,    0.0,    9.5,   0.00,   0.00, 1024.1,   76.2, -999.0
16-04-2022, 00:34:49,    167,    0.0,    9.6,   0.00,   0.00, 1024.1,   76.1, -999.0
16-04-2022, 00:34:59,    166,    0.0,    9.5,   0.00,   0.00, 1024.1,   76.1, -999.0
16-04-2022, 00:35:09,    166,    0.0,    9.6,   0.00,   0.00, 1024.1,   76.0, -999.0
16-04-2022, 00:35:19,    166,    0.0,    9.6,   0.00,   0.00, 1024.1,   76.1, -999.0
16-04-2022, 00:35:29,    166,    0.0,    9.5,   0.00,   0.00, 1024.1,   76.0, -999.0
16-04-2022, 00:35:39,    166,    0.0,    9.5,   0.00,   0.00, 1024.1,   76.1, -999.0
16-04-2022, 00:35:49,    167,    0.0,    9.5,   0.00,   0.00, 1024.1,   76.2, -999.0
16-04-2022, 00:35:59,    166,    0.0,    9.5,   0.00,   0.00, 1024.1,   76.2, -999.0
16-04-2022, 00:36:09,    166,    0.0,    9.5,   0.00,   0.00, 1024.1,   76.2, -999.0
16-04-2022, 00:36:19,    167,    0.0,    9.5,   0.00,   0.00, 1024.1,   76.3, -999.0
16-04-2022, 00:36:29,    166,    0.0,    9.6,   0.00,   0.00, 1024.1,   76.3, -999.0
16-04-2022, 00:36:39,    166,    0.0,    9.5,   0.00,   0.00, 1024.1,   76.2, -999.0
16-04-2022, 00:36:48,    167,    0.0,    9.5,   0.00,   0.00, 1024.1,   76.3, -999.0
16-04-2022, 00:36:58,    166,    0.0,    9.5,   0.00,   0.00, 1024.1,   76.2, -999.0
16-04-2022, 00:37:09,    166,    0.0,    9.5,   0.00,   0.00, 1024.1,   76.3, -999.0
16-04-2022, 00:37:18,    166,    0.0,    9.4,   0.00,   0.00, 1024.1,   76.3, -999.0
16-04-2022, 00:37:28,    166,    0.0,    9.5,   0.00,   0.00, 1024.1,   76.2, -999.0
16-04-2022, 00:37:38,    167,    0.0,    9.6,   0.00,   0.00, 1024.1,   76.1, -999.0
16-04-2022, 00:37:48,    167,    0.0,    9.5,   0.00,   0.00, 1024.1,   76.1, -999.0
16-04-2022, 00:37:58,    167,    0.0,    9.5,   0.00,   0.00, 1024.1,   76.3, -999.0
16-04-2022, 00:38:08,    166,    0.0,    9.5,   0.00,   0.00, 1024.1,   76.3, -999.0
16-04-2022, 00:38:18,    167,    0.0,    9.5,   0.00,   0.00, 1024.1,   76.2, -999.0
16-04-2022, 00:38:28,    167,    0.0,    9.5,   0.00,   0.00, 1024.1,   76.2, -999.0
16-04-2022, 00:38:38,    167,    0.0,    9.5,   0.00,   0.00, 1024.1,   76.1, -999.0
16-04-2022, 00:38:48,    166,    0.0,    9.5,   0.00,   0.00, 1024.1,   76.2, -999.0
16-04-2022, 00:38:58,    167,    0.0,    9.5,   0.00,   0.00, 1024.1,   76.2, -999.0
16-04-2022, 00:39:08,    167,    0.0,    9.4,   0.00,   0.00, 1024.1,   76.3, -999.0
16-04-2022, 00:39:18,    167,    0.0,    9.5,   0.00,   0.00, 1024.1,   76.3, -999.0
16-04-2022, 00:39:27,    167,    0.0,    9.6,   0.00,   0.00, 1024.1,   76.3, -999.0
16-04-2022, 00:39:38,    168,    0.0,    9.6,   0.00,   0.00, 1024.1,   76.2, -999.0
16-04-2022, 00:39:48,    167,    0.0,    9.6,   0.00,   0.00, 1024.1,   76.3, -999.0
16-04-2022, 00:39:57,    167,    0.0,    9.5,   0.00,   0.00, 1024.1,   76.2, -999.0
16-04-2022, 00:40:07,    167,    0.0,    9.5,   0.00,   0.00, 1024.1,   76.3, -999.0
16-04-2022, 00:40:18,    167,    0.0,    9.5,   0.00,   0.00, 1024.1,   76.3, -999.0
16-04-2022, 00:40:27,    167,    0.0,    9.5,   0.00,   0.00, 1024.1,   76.1, -999.0
16-04-2022, 00:40:37,    167,    0.0,    9.6,   0.00,   0.00, 1024.1,   76.1, -999.0
16-04-2022, 00:40:48,    167,    0.0,    9.5,   0.00,   0.00, 1024.1,   76.1, -999.0
16-04-2022, 00:40:57,    167,    0.0,    9.5,   0.00,   0.00, 1024.1,   76.2, -999.0
16-04-2022, 00:41:07,    167,    0.0,    9.5,   0.00,   0.00, 1024.1,   76.2, -999.0
16-04-2022, 00:41:17,    167,    0.0,    9.6,   0.00,   0.00, 1024.1,   76.2, -999.0
16-04-2022, 00:41:27,    167,    0.0,    9.5,   0.00,   0.00, 1024.1,   76.2, -999.0
16-04-2022, 00:41:37,    167,    0.0,    9.5,   0.00,   0.00, 1024.1,   76.2, -999.0
16-04-2022, 00:41:47,    167,    0.0,    9.6,   0.00,   0.00, 1024.1,   76.2, -999.0
16-04-2022, 00:41:57,    167,    0.0,    9.5,   0.00,   0.00, 1024.1,   76.3, -999.0
16-04-2022, 00:42:07,    167,    0.0,    9.4,   0.00,   0.00, 1024.1,   76.3, -999.0
16-04-2022, 00:42:17,    167,    0.0,    9.4,   0.00,   0.00, 1024.1,   76.2, -999.0
16-04-2022, 00:42:27,    167,    0.0,    9.5,   0.00,   0.00, 1024.0,   76.3, -999.0
16-04-2022, 00:42:37,    167,    0.0,    9.5,   0.00,   0.00, 1024.1,   76.2, -999.0
16-04-2022, 00:42:47,    167,    0.0,    9.5,   0.00,   0.00, 1024.1,   76.3, -999.0
16-04-2022, 00:42:57,    167,    0.0,    9.5,   0.00,   0.00, 1024.1,   76.2, -999.0
16-04-2022, 00:43:06,    167,    0.0,    9.5,   0.00,   0.00, 1024.1,   76.2, -999.0
16-04-2022, 00:43:17,    166,    0.0,    9.5,   0.00,   0.00, 1024.1,   76.4, -999.0
16-04-2022, 00:43:27,    167,    0.0,    9.5,   0.00,   0.00, 1024.1,   76.3, -999.0
16-04-2022, 00:43:36,    167,    0.0,    9.5,   0.00,   0.00, 1024.1,   76.4, -999.0
16-04-2022, 00:43:46,    167,    0.0,    9.5,   0.00,   0.00, 1024.1,   76.3, -999.0
16-04-2022, 00:43:56,    167,    0.0,    9.5,   0.00,   0.00, 1024.1,   76.4, -999.0
16-04-2022, 00:44:06,    167,    0.0,    9.5,   0.00,   0.00, 1024.1,   76.5, -999.0
16-04-2022, 00:44:16,    167,    0.0,    9.4,   0.00,   0.00, 1024.1,   76.4, -999.0
16-04-2022, 00:44:26,    167,    0.0,    9.5,   0.00,   0.00, 1024.1,   76.4, -999.0
16-04-2022, 00:44:36,    167,    0.0,    9.5,   0.00,   0.00, 1024.1,   76.4, -999.0
16-04-2022, 00:44:46,    167,    0.0,    9.5,   0.00,   0.00, 1024.1,   76.4, -999.0
16-04-2022, 00:44:56,    167,    0.0,    9.5,   0.00,   0.00, 1024.1,   76.4, -999.0
16-04-2022, 00:45:06,    167,    0.0,    9.5,   0.00,   0.00, 1024.1,   76.5, -999.0
16-04-2022, 00:45:16,    167,    0.0,    9.5,   0.00,   0.00, 1024.1,   76.4, -999.0
16-04-2022, 00:45:26,    167,    0.0,    9.5,   0.00,   0.00, 1024.1,   76.4, -999.0
16-04-2022, 00:45:36,    167,    0.0,    9.5,   0.00,   0.00, 1024.1,   76.4, -999.0
16-04-2022, 00:45:46,    167,    0.0,    9.5,   0.00,   0.00, 1024.1,   76.5, -999.0
16-04-2022, 00:45:56,    167,    0.0,    9.5,   0.00,   0.00, 1024.1,   76.5, -999.0
16-04-2022, 00:46:06,    167,    0.0,    9.6,   0.00,   0.00, 1024.1,   76.5, -999.0
16-04-2022, 00:46:15,    169,    0.0,    9.5,   0.00,   0.00, 1024.1,   76.7, -999.0
16-04-2022, 00:46:26,    167,    0.0,    9.6,   0.00,   0.00, 1024.1,   76.6, -999.0
16-04-2022, 00:46:36,    167,    0.0,    9.5,   0.00,   0.00, 1024.1,   76.6, -999.0